BCS186 EDDP-EDDF

Flight info

Callsign BCS186
Flight time 0h 54m
Altitude 22000
Route ORTAG5E/08R ORTAG T177 ODIPI/N0417F210 T157 KERAX KERAX5D
Aircraft A306/H-SDE3FGHIRWY/LB1

Departure

Time 2026-05-07 19:27
Airport Leipzig/Halle Airport (EDDP)

Arrival

Time 2026-05-07 20:21
Airport Frankfurt Main Airport (EDDF)
Time Latitude Longitude Altitude Speed Heading
2026-05-07 18:49 51.40819 12.24036 471 ft 0 kts 265°
2026-05-07 19:04 51.40821 12.24071 471 ft 4 kts 268°
2026-05-07 19:04 51.40821 12.24115 471 ft 4 kts 270°
2026-05-07 19:04 51.40821 12.24158 470 ft 4 kts 275°
2026-05-07 19:05 51.40817 12.24200 470 ft 4 kts 285°
2026-05-07 19:05 51.40807 12.24237 469 ft 4 kts 324°
2026-05-07 19:05 51.40798 12.24244 466 ft 1 kts 355°
2026-05-07 19:11 51.40824 12.24241 469 ft 9 kts 355°
2026-05-07 19:11 51.40914 12.24226 467 ft 17 kts 353°
2026-05-07 19:12 51.41024 12.24214 471 ft 9 kts 355°
2026-05-07 19:12 51.41068 12.24165 472 ft 8 kts 292°
2026-05-07 19:12 51.41068 12.24022 472 ft 18 kts 265°
2026-05-07 19:12 51.41059 12.23827 471 ft 17 kts 265°
2026-05-07 19:13 51.41049 12.23639 477 ft 17 kts 265°
2026-05-07 19:13 51.41041 12.23458 475 ft 17 kts 265°
2026-05-07 19:13 51.41031 12.23275 471 ft 16 kts 266°
2026-05-07 19:13 51.41025 12.23100 477 ft 16 kts 267°
2026-05-07 19:14 51.41017 12.22915 473 ft 17 kts 265°
2026-05-07 19:14 51.41007 12.22722 473 ft 17 kts 266°
2026-05-07 19:14 51.40998 12.22521 469 ft 19 kts 265°
2026-05-07 19:14 51.40995 12.22362 467 ft 12 kts 287°
2026-05-07 19:15 51.41054 12.22292 466 ft 11 kts 322°
2026-05-07 19:15 51.41070 12.22187 466 ft 10 kts 265°
2026-05-07 19:15 51.41064 12.22063 465 ft 15 kts 265°
2026-05-07 19:15 51.41054 12.21860 466 ft 21 kts 265°
2026-05-07 19:16 51.41040 12.21654 465 ft 16 kts 269°
2026-05-07 19:16 51.41037 12.21455 460 ft 19 kts 269°
2026-05-07 19:16 51.41029 12.21260 457 ft 17 kts 266°
2026-05-07 19:16 51.41020 12.21073 452 ft 18 kts 265°
2026-05-07 19:17 51.41012 12.20947 447 ft 9 kts 264°
2026-05-07 19:17 51.41006 12.20841 446 ft 10 kts 265°
2026-05-07 19:17 51.41005 12.20823 446 ft 1 kts 265°
2026-05-07 19:17 51.41003 12.20790 446 ft 4 kts 266°
2026-05-07 19:18 51.41003 12.20780 432 ft 0 kts 265°
2026-05-07 19:19 51.41003 12.20778 432 ft 2 kts 265°
2026-05-07 19:19 51.40997 12.20695 435 ft 10 kts 263°
2026-05-07 19:19 51.40995 12.20655 436 ft 0 kts 264°
2026-05-07 19:19 51.40994 12.20647 436 ft 0 kts 266°
2026-05-07 19:21 51.40994 12.20632 436 ft 5 kts 266°
2026-05-07 19:21 51.41002 12.20544 430 ft 10 kts 295°
2026-05-07 19:21 51.41030 12.20487 435 ft 0 kts 330°
2026-05-07 19:23 51.41032 12.20486 427 ft 1 kts 330°
2026-05-07 19:25 51.41042 12.20480 426 ft 4 kts 344°
2026-05-07 19:25 51.41080 12.20492 437 ft 12 kts 14°
2026-05-07 19:25 51.41156 12.20554 432 ft 12 kts 51°
2026-05-07 19:25 51.41168 12.20641 432 ft 0 kts 84°
2026-05-07 19:26 51.41169 12.20650 433 ft 5 kts 84°
2026-05-07 19:26 51.41191 12.21078 452 ft 81 kts 86°
2026-05-07 19:26 51.41247 12.22389 466 ft 153 kts 83°
2026-05-07 19:27 51.41324 12.24315 883 ft 191 kts 84°
2026-05-07 19:27 51.41390 12.26555 1860 ft 207 kts 87°
2026-05-07 19:27 51.41440 12.28933 2707 ft 217 kts 85°
2026-05-07 19:27 51.41578 12.31455 3388 ft 239 kts 83°
2026-05-07 19:28 51.41741 12.34141 4383 ft 250 kts 84°
2026-05-07 19:28 51.41931 12.36937 5506 ft 255 kts 79°
2026-05-07 19:28 51.42541 12.39630 6378 ft 261 kts 58°
2026-05-07 19:28 51.43826 12.41689 6841 ft 266 kts 32°
2026-05-07 19:29 51.45583 12.42597 6974 ft 269 kts
2026-05-07 19:29 51.47441 12.42246 6992 ft 271 kts 348°
2026-05-07 19:29 51.49266 12.41458 6985 ft 272 kts 345°
2026-05-07 19:29 51.51166 12.40596 6987 ft 272 kts 345°
2026-05-07 19:30 51.52915 12.39819 6984 ft 272 kts 346°
2026-05-07 19:30 51.54722 12.38893 7051 ft 273 kts 337°
2026-05-07 19:30 51.56307 12.37189 7672 ft 279 kts 316°
2026-05-07 19:30 51.57406 12.34612 8875 ft 282 kts 296°
2026-05-07 19:31 51.58125 12.31670 10119 ft 285 kts 291°
2026-05-07 19:31 51.58773 12.28640 10866 ft 301 kts 290°
2026-05-07 19:31 51.59475 12.25324 11282 ft 325 kts 290°
2026-05-07 19:31 51.60319 12.21824 11642 ft 346 kts 297°
2026-05-07 19:32 51.61734 12.18613 12159 ft 358 kts 315°
2026-05-07 19:32 51.63714 12.16139 12904 ft 363 kts 327°
2026-05-07 19:32 51.65853 12.13940 13697 ft 367 kts 329°
2026-05-07 19:32 51.67914 12.11433 14329 ft 376 kts 318°
2026-05-07 19:33 51.69500 12.08112 15018 ft 384 kts 301°
2026-05-07 19:33 51.70404 12.04055 15756 ft 390 kts 282°
2026-05-07 19:33 51.70532 11.99667 16510 ft 394 kts 268°
2026-05-07 19:33 51.70332 11.95247 17255 ft 397 kts 266°
2026-05-07 19:34 51.70090 11.90798 17993 ft 400 kts 265°
2026-05-07 19:34 51.69845 11.86235 18663 ft 403 kts 266°
2026-05-07 19:34 51.69610 11.81738 19247 ft 407 kts 266°
2026-05-07 19:34 51.69377 11.77225 19856 ft 409 kts 266°
2026-05-07 19:35 51.69145 11.72701 20456 ft 412 kts 266°
2026-05-07 19:35 51.68908 11.68084 21024 ft 415 kts 266°
2026-05-07 19:35 51.68670 11.63455 21670 ft 414 kts 265°
2026-05-07 19:35 51.68430 11.58829 22027 ft 415 kts 265°
2026-05-07 19:36 51.68189 11.54220 22080 ft 403 kts 265°
2026-05-07 19:36 51.67958 11.49850 22087 ft 381 kts 265°
2026-05-07 19:36 51.67737 11.45698 22076 ft 362 kts 265°
2026-05-07 19:36 51.67526 11.41748 22089 ft 348 kts 265°
2026-05-07 19:37 51.67319 11.37883 22099 ft 346 kts 265°
2026-05-07 19:37 51.67109 11.34021 22085 ft 346 kts 265°
2026-05-07 19:37 51.66660 11.30212 22093 ft 348 kts 252°
2026-05-07 19:37 51.65558 11.26767 22091 ft 349 kts 234°
2026-05-07 19:38 51.63813 11.24043 22100 ft 351 kts 218°
2026-05-07 19:38 51.61799 11.21810 22096 ft 352 kts 214°
2026-05-07 19:38 51.59776 11.19690 22096 ft 352 kts 214°
2026-05-07 19:38 51.57723 11.17541 22080 ft 352 kts 214°
2026-05-07 19:39 51.55675 11.15385 22086 ft 352 kts 214°
2026-05-07 19:39 51.53631 11.13225 22092 ft 352 kts 214°
2026-05-07 19:39 51.51590 11.11065 22081 ft 351 kts 215°
2026-05-07 19:39 51.49609 11.08800 22085 ft 348 kts 221°
2026-05-07 19:40 51.47994 11.05934 22094 ft 346 kts 235°
2026-05-07 19:40 51.46670 11.02725 22081 ft 345 kts 239°
2026-05-07 19:40 51.45474 10.99383 22084 ft 345 kts 242°
2026-05-07 19:40 51.44368 10.96038 22383 ft 321 kts 244°
2026-05-07 19:41 51.43604 10.93155 23733 ft 249 kts 252°
2026-05-07 19:41 51.43092 10.90689 23963 ft 226 kts 252°
2026-05-07 19:41 51.42603 10.88358 23743 ft 220 kts 250°
2026-05-07 19:41 51.41855 10.86120 22966 ft 237 kts 238°
2026-05-07 19:42 51.40879 10.83910 22344 ft 251 kts 235°
2026-05-07 19:42 51.39778 10.81490 22127 ft 284 kts 236°
2026-05-07 19:42 51.38629 10.78790 22100 ft 300 kts 238°
2026-05-07 19:42 51.37489 10.75890 22077 ft 316 kts 239°
2026-05-07 19:43 51.36335 10.72761 22089 ft 337 kts 241°
2026-05-07 19:43 51.35153 10.69433 22082 ft 349 kts 241°
2026-05-07 19:43 51.33978 10.66077 22079 ft 351 kts 242°
2026-05-07 19:43 51.32786 10.62658 22086 ft 352 kts 242°
2026-05-07 19:44 51.31591 10.59243 22081 ft 352 kts 242°
2026-05-07 19:44 51.30392 10.55832 22083 ft 352 kts 241°
2026-05-07 19:44 51.29188 10.52421 22079 ft 352 kts 241°
2026-05-07 19:44 51.27979 10.49017 22086 ft 352 kts 240°
2026-05-07 19:45 51.26578 10.45803 22079 ft 353 kts 234°
2026-05-07 19:45 51.25096 10.42675 22086 ft 353 kts 233°
2026-05-07 19:45 51.23596 10.39643 22079 ft 353 kts 232°
2026-05-07 19:45 51.22053 10.36595 22084 ft 353 kts 232°
2026-05-07 19:46 51.20502 10.33558 22089 ft 353 kts 232°
2026-05-07 19:46 51.18948 10.30519 22079 ft 353 kts 232°
2026-05-07 19:46 51.17408 10.27500 22086 ft 353 kts 231°
2026-05-07 19:46 51.15719 10.24759 22078 ft 355 kts 220°
2026-05-07 19:47 51.13637 10.22690 22083 ft 357 kts 205°
2026-05-07 19:47 51.11248 10.21589 22088 ft 359 kts 193°
2026-05-07 19:47 51.08887 10.20389 22086 ft 356 kts 208°
2026-05-07 19:47 51.06775 10.18340 22090 ft 355 kts 216°
2026-05-07 19:48 51.04829 10.16007 22091 ft 355 kts 219°
2026-05-07 19:48 51.02911 10.13544 22079 ft 355 kts 220°
2026-05-07 19:48 51.00989 10.11085 22088 ft 355 kts 219°
2026-05-07 19:48 50.99042 10.08674 22089 ft 355 kts 219°
2026-05-07 19:49 50.97068 10.06314 22080 ft 355 kts 218°
2026-05-07 19:49 50.95077 10.04000 22088 ft 355 kts 217°
2026-05-07 19:49 50.93072 10.01711 22089 ft 355 kts 217°
2026-05-07 19:49 50.91057 9.99431 22093 ft 355 kts 217°
2026-05-07 19:50 50.89045 9.97164 22091 ft 355 kts 217°
2026-05-07 19:50 50.87029 9.94892 22095 ft 356 kts 217°
2026-05-07 19:50 50.85041 9.92651 22091 ft 356 kts 217°
2026-05-07 19:50 50.83025 9.90378 22096 ft 356 kts 217°
2026-05-07 19:51 50.81012 9.88108 22092 ft 356 kts 217°
2026-05-07 19:51 50.78997 9.85837 22093 ft 355 kts 217°
2026-05-07 19:51 50.76984 9.83570 22095 ft 355 kts 217°
2026-05-07 19:51 50.74972 9.81307 22094 ft 355 kts 217°
2026-05-07 19:52 50.72957 9.79044 22098 ft 355 kts 217°
2026-05-07 19:52 50.70943 9.76782 22099 ft 355 kts 217°
2026-05-07 19:52 50.68953 9.74551 21925 ft 356 kts 217°
2026-05-07 19:52 50.66949 9.72306 21897 ft 351 kts 217°
2026-05-07 19:53 50.64963 9.70087 21889 ft 348 kts 217°
2026-05-07 19:53 50.62941 9.67989 21888 ft 349 kts 209°
2026-05-07 19:53 50.60733 9.66397 21894 ft 350 kts 204°
2026-05-07 19:53 50.58464 9.64936 21697 ft 355 kts 203°
2026-05-07 19:54 50.56163 9.63503 21437 ft 355 kts 203°
2026-05-07 19:54 50.53867 9.62089 21164 ft 354 kts 203°
2026-05-07 19:54 50.51585 9.60691 20795 ft 348 kts 203°
2026-05-07 19:54 50.49443 9.59025 19921 ft 342 kts 215°
2026-05-07 19:55 50.47712 9.56530 18990 ft 337 kts 233°
2026-05-07 19:55 50.46596 9.53398 18151 ft 332 kts 249°
2026-05-07 19:55 50.45884 9.49981 17210 ft 327 kts 254°
2026-05-07 19:55 50.45260 9.46579 16308 ft 323 kts 255°
2026-05-07 19:56 50.44644 9.43213 15416 ft 319 kts 254°
2026-05-07 19:56 50.44043 9.39971 14593 ft 315 kts 254°
2026-05-07 19:56 50.43415 9.36620 13714 ft 311 kts 254°
2026-05-07 19:56 50.42804 9.33383 12776 ft 308 kts 254°
2026-05-07 19:57 50.42194 9.30178 11899 ft 305 kts 253°
2026-05-07 19:57 50.41426 9.27097 11326 ft 304 kts 243°
2026-05-07 19:57 50.40188 9.24396 11113 ft 308 kts 227°
2026-05-07 19:57 50.38545 9.22317 11084 ft 308 kts 215°
2026-05-07 19:58 50.36739 9.20527 11069 ft 307 kts 212°
2026-05-07 19:58 50.34916 9.18786 11077 ft 306 kts 212°
2026-05-07 19:58 50.33098 9.17047 11081 ft 306 kts 212°
2026-05-07 19:58 50.31280 9.15302 11062 ft 306 kts 212°
2026-05-07 19:59 50.29467 9.13549 11078 ft 306 kts 213°
2026-05-07 19:59 50.27814 9.11511 11065 ft 305 kts 227°
2026-05-07 19:59 50.26597 9.08841 11074 ft 303 kts 244°
2026-05-07 19:59 50.25786 9.05797 10991 ft 302 kts 250°
2026-05-07 20:00 50.25086 9.02759 10771 ft 301 kts 251°
2026-05-07 20:00 50.24386 8.99683 10587 ft 301 kts 251°
2026-05-07 20:00 50.23678 8.96604 10415 ft 300 kts 251°
2026-05-07 20:00 50.22967 8.93543 10254 ft 300 kts 251°
2026-05-07 20:01 50.22261 8.90517 10082 ft 300 kts 251°
2026-05-07 20:01 50.21546 8.87468 9910 ft 299 kts 251°
2026-05-07 20:01 50.20830 8.84419 9722 ft 299 kts 251°
2026-05-07 20:01 50.20114 8.81382 9534 ft 298 kts 251°
2026-05-07 20:02 50.19401 8.78359 9348 ft 296 kts 251°
2026-05-07 20:02 50.18688 8.75345 9167 ft 296 kts 250°
2026-05-07 20:02 50.17992 8.72403 8974 ft 288 kts 250°
2026-05-07 20:02 50.17308 8.69519 8786 ft 281 kts 251°
2026-05-07 20:03 50.16632 8.66669 8600 ft 279 kts 251°
2026-05-07 20:03 50.15963 8.63854 8420 ft 278 kts 250°
2026-05-07 20:03 50.15293 8.61036 8247 ft 277 kts 251°
2026-05-07 20:03 50.14622 8.58220 8070 ft 276 kts 250°
2026-05-07 20:04 50.13954 8.55417 7887 ft 275 kts 250°
2026-05-07 20:04 50.13287 8.52626 7708 ft 274 kts 250°
2026-05-07 20:04 50.12622 8.49842 7531 ft 274 kts 250°
2026-05-07 20:04 50.11957 8.47067 7355 ft 273 kts 250°
2026-05-07 20:05 50.11303 8.44339 7183 ft 272 kts 250°
2026-05-07 20:05 50.10641 8.41590 7049 ft 271 kts 250°
2026-05-07 20:05 50.09978 8.38846 6923 ft 270 kts 250°
2026-05-07 20:05 50.09312 8.36107 6809 ft 270 kts 250°
2026-05-07 20:06 50.08651 8.33377 6680 ft 269 kts 250°
2026-05-07 20:06 50.08170 8.31389 6588 ft 269 kts 250°
2026-05-07 20:06 50.07511 8.28665 6465 ft 268 kts 250°
2026-05-07 20:06 50.06853 8.25954 6341 ft 268 kts 250°
2026-05-07 20:07 50.06194 8.23246 6203 ft 268 kts 250°
2026-05-07 20:07 50.05535 8.20537 6073 ft 268 kts 250°
2026-05-07 20:07 50.04876 8.17831 5941 ft 268 kts 250°
2026-05-07 20:07 50.04215 8.15126 5804 ft 267 kts 250°
2026-05-07 20:08 50.03564 8.12461 5679 ft 267 kts 250°
2026-05-07 20:08 50.02906 8.09770 5613 ft 267 kts 250°
2026-05-07 20:08 50.02248 8.07069 5487 ft 267 kts 250°
2026-05-07 20:08 50.01589 8.04372 5269 ft 267 kts 250°
2026-05-07 20:09 50.00942 8.01725 5084 ft 255 kts 250°
2026-05-07 20:09 50.00329 7.99223 5007 ft 241 kts 250°
2026-05-07 20:09 49.99742 7.96829 4981 ft 236 kts 250°
2026-05-07 20:10 49.98597 7.92157 4970 ft 227 kts 250°
2026-05-07 20:10 49.98037 7.89877 4977 ft 226 kts 250°
2026-05-07 20:10 49.97478 7.87610 4993 ft 223 kts 249°
2026-05-07 20:10 49.96755 7.85493 4984 ft 224 kts 234°
2026-05-07 20:11 49.95579 7.83900 4975 ft 228 kts 210°
2026-05-07 20:11 49.94064 7.83216 4972 ft 229 kts 184°
2026-05-07 20:11 49.92489 7.83564 4974 ft 229 kts 163°
2026-05-07 20:11 49.91067 7.84548 4966 ft 221 kts 147°
2026-05-07 20:12 49.89972 7.86175 4964 ft 218 kts 124°
2026-05-07 20:12 49.89381 7.88310 4967 ft 216 kts 100°
2026-05-07 20:12 49.89381 7.90611 4971 ft 214 kts 77°
2026-05-07 20:12 49.89822 7.92801 4972 ft 213 kts 68°
2026-05-07 20:13 49.90362 7.94932 4971 ft 213 kts 67°
2026-05-07 20:13 49.90907 7.97063 4970 ft 213 kts 67°
2026-05-07 20:13 49.91447 7.99204 4969 ft 213 kts 68°
2026-05-07 20:13 49.91973 8.01314 4969 ft 213 kts 68°
2026-05-07 20:14 49.92505 8.03463 4981 ft 213 kts 68°
2026-05-07 20:14 49.93034 8.05616 4979 ft 213 kts 68°
2026-05-07 20:14 49.93560 8.07763 4980 ft 212 kts 68°
2026-05-07 20:14 49.94074 8.09810 4966 ft 197 kts 66°
2026-05-07 20:15 49.94585 8.11746 4973 ft 193 kts 67°
2026-05-07 20:15 49.95067 8.13695 4981 ft 193 kts 68°
2026-05-07 20:15 49.95539 8.15637 4984 ft 191 kts 68°
2026-05-07 20:15 49.95999 8.17560 4831 ft 190 kts 68°
2026-05-07 20:16 49.96458 8.19483 4532 ft 189 kts 68°
2026-05-07 20:16 49.96909 8.21361 4208 ft 188 kts 68°
2026-05-07 20:16 49.97365 8.23260 3914 ft 188 kts 68°
2026-05-07 20:16 49.97821 8.25161 3642 ft 185 kts 68°
2026-05-07 20:17 49.98260 8.26993 3403 ft 177 kts 68°
2026-05-07 20:17 49.98687 8.28771 3175 ft 175 kts 68°
2026-05-07 20:17 49.99109 8.30532 2936 ft 173 kts 68°
2026-05-07 20:17 49.99527 8.32276 2704 ft 172 kts 69°
2026-05-07 20:18 49.99941 8.34002 2466 ft 167 kts 69°
2026-05-07 20:18 50.00324 8.35603 2253 ft 151 kts 69°
2026-05-07 20:18 50.00663 8.37020 2046 ft 135 kts 69°
2026-05-07 20:18 50.00989 8.38376 1877 ft 134 kts 69°
2026-05-07 20:19 50.01312 8.39722 1703 ft 133 kts 69°
2026-05-07 20:19 50.01636 8.41078 1524 ft 135 kts 69°
2026-05-07 20:19 50.01953 8.42452 1329 ft 133 kts 69°
2026-05-07 20:19 50.02263 8.43742 1093 ft 122 kts 68°
2026-05-07 20:20 50.02562 8.44939 939 ft 117 kts 68°
2026-05-07 20:20 50.02839 8.46082 813 ft 113 kts 69°
2026-05-07 20:20 50.03119 8.47257 683 ft 115 kts 68°
2026-05-07 20:20 50.03397 8.48404 551 ft 115 kts 68°
2026-05-07 20:21 50.03671 8.49551 411 ft 112 kts 68°
2026-05-07 20:21 50.03921 8.50605 360 ft 89 kts 69°
2026-05-07 20:21 50.04069 8.51232 361 ft 36 kts 70°
2026-05-07 20:21 50.04113 8.51556 359 ft 23 kts 91°
2026-05-07 20:22 50.04102 8.51704 357 ft 7 kts 100°
2026-05-07 20:22 50.04101 8.51710 356 ft 0 kts 100°
2026-05-07 20:23 50.04101 8.51712 355 ft 0 kts 100°
2026-05-07 20:23 50.04099 8.51726 353 ft 2 kts 100°
2026-05-07 20:23 50.04097 8.51747 361 ft 2 kts 100°
2026-05-07 20:24 50.04093 8.51783 359 ft 5 kts 99°
2026-05-07 20:24 50.04084 8.51872 361 ft 11 kts 98°
2026-05-07 20:24 50.04072 8.51995 357 ft 12 kts 96°
2026-05-07 20:24 50.04071 8.52120 358 ft 11 kts 83°
2026-05-07 20:25 50.04086 8.52198 359 ft 11 kts 70°
2026-05-07 20:25 50.04113 8.52312 360 ft 11 kts 69°
2026-05-07 20:25 50.04141 8.52429 360 ft 12 kts 69°
2026-05-07 20:25 50.04170 8.52549 362 ft 12 kts 70°
2026-05-07 20:26 50.04200 8.52674 359 ft 13 kts 70°
2026-05-07 20:26 50.04231 8.52803 354 ft 13 kts 70°
2026-05-07 20:26 50.04263 8.52940 359 ft 15 kts 69°
2026-05-07 20:26 50.04315 8.53152 362 ft 27 kts 69°
2026-05-07 20:27 50.04384 8.53439 362 ft 28 kts 68°
2026-05-07 20:27 50.04410 8.53727 358 ft 27 kts 83°
2026-05-07 20:27 50.04429 8.54008 360 ft 26 kts 83°
2026-05-07 20:27 50.04446 8.54291 358 ft 26 kts 84°
2026-05-07 20:28 50.04444 8.54531 359 ft 21 kts 105°
2026-05-07 20:28 50.04363 8.54718 358 ft 21 kts 141°
2026-05-07 20:28 50.04233 8.54815 357 ft 21 kts 160°
2026-05-07 20:28 50.04100 8.54894 355 ft 18 kts 159°
2026-05-07 20:29 50.04008 8.54922 354 ft 10 kts 199°
2026-05-07 20:29 50.03974 8.54841 357 ft 10 kts 253°
2026-05-07 20:29 50.03949 8.54724 358 ft 16 kts 248°
2026-05-07 20:29 50.03896 8.54512 354 ft 26 kts 252°
2026-05-07 20:30 50.03807 8.54242 361 ft 28 kts 244°
2026-05-07 20:30 50.03750 8.54009 359 ft 19 kts 249°
2026-05-07 20:30 50.03711 8.53849 358 ft 16 kts 249°
2026-05-07 20:30 50.03674 8.53695 358 ft 9 kts 250°
2026-05-07 20:31 50.03662 8.53640 360 ft 7 kts 256°
2026-05-07 20:31 50.03701 8.53529 362 ft 12 kts 295°
2026-05-07 20:31 50.03701 8.53461 354 ft 5 kts 251°
2026-05-07 20:31 50.03705 8.53418 354 ft 3 kts 312°
2026-05-07 20:32 50.03727 8.53399 357 ft 5 kts 335°
2026-05-07 20:32 50.03765 8.53375 354 ft 6 kts 339°
2026-05-07 20:32 50.03783 8.53365 360 ft 0 kts 339°